Flag for U.S.A. Weather past 2 weeks in Tallahassee, Florida, U.S.A.

Now
76 °F

Partly cloudy.


Feels Like: 75 °F
Forecast: 71 / 89 °F
Wind: No wind

Location: Tallahassee Regional Airport

Current Time: Sep 16, 2014 at 10:14:07 PM

Latest Report: Sep 16, 2014 at 9:53 PM


Visibility: 10 mi

Pressure: 29.98 "Hg

Humidity: 94%

Dew point: 74 °F

Location of TallahasseeLocation

Historic Weather in Tallahassee — Graph

°F

Tallahassee temperature yesterday

Maximum temperature yesterday: 87 °F (at 11:53 AM)
Minimum temperature yesterday: 76 °F (at 4:53 AM)
Average temperature yesterday: 79 °F

Past Weeks' High & Low Weather Summary

 TemperatureHumidityPressure
High96 °F (Sep 2, 3:53 PM)100% (Sep 3, 2:53 AM)30.14 "Hg (Sep 3, 2:53 AM)
Low73 °F (Sep 5, 3:53 AM)40% (Sep 2, 3:53 PM)29.93 "Hg (Sep 12, 6:53 PM)
Average81 °F79%30.03 "Hg
* Reported Sep 1 8:53 PM — Sep 16 8:53 PM, Tallahassee, Weather by CustomWeather, © 2014

Note: Actual official high and low records may vary slightly from our data, if they occured in-between our weather recording intervals... More about our weather records

Advertising

Tallahassee weather history for previous 24 hours

 ConditionsComfort  
Time TempWeatherWind HumidityBarometerVisibility
8:53 PM
Sep 16
76 °FOvercast.No wind91%29.98 "Hg10 mi
7:53 PM77 °FMostly cloudy.No wind88%29.97 "Hg10 mi
6:53 PM78 °FLight rain. Cloudy.5 mph84%29.98 "Hg10 mi
6:01 PM79 °FMostly cloudy.6 mph84%29.99 "Hg10 mi
4:53 PM80 °FCloudy.6 mph81%29.99 "Hg10 mi
3:53 PM81 °FThunderstorms. More clouds than sun.8 mph74%29.97 "Hg10 mi
2:53 PM83 °FOvercast.14 mph72%29.98 "Hg10 mi
1:53 PM84 °FBroken clouds.9 mph70%30.03 "Hg10 mi
12:53 PM82 °FOvercast.8 mph74%30.05 "Hg10 mi
11:53 AM82 °FPartly sunny.8 mph79%30.06 "Hg10 mi
10:53 AM80 °FScattered clouds.7 mph85%30.07 "Hg10 mi
9:53 AM79 °FMore clouds than sun.7 mph88%30.06 "Hg10 mi
8:53 AM77 °FMostly cloudy.3 mph94%30.06 "Hg10 mi
7:53 AM76 °FPartly cloudy.No wind94%30.06 "Hg10 mi
6:53 AM77 °FPassing clouds.3 mph90%30.05 "Hg10 mi
5:53 AM77 °FLight rain. Mostly cloudy.3 mph90%30.05 "Hg10 mi
4:53 AM77 °FOvercast.6 mph90%30.05 "Hg10 mi
3:53 AM77 °FClear.3 mph90%30.05 "Hg10 mi
2:53 AM77 °FOvercast.7 mph94%30.06 "Hg10 mi
1:53 AM77 °FPassing clouds.6 mph94%30.08 "Hg10 mi
12:53 AM77 °FOvercast.14 mph94%30.09 "Hg10 mi
11:53 PM
Sep 15
78 °FOvercast.No wind87%30.11 "Hg10 mi
10:53 PM77 °FPartly cloudy.No wind90%30.11 "Hg10 mi
Weather by CustomWeather, © 2014

See weather overviewHow to use our weather pages